[Iaude] MPEC J76: 2020 JM1 [a=1.44,e=0.30,i=5.2,H=26.0]

mpec at marsden.cfa.harvard.edu mpec at marsden.cfa.harvard.edu
Thu May 14 20:51:48 EDT 2020


M.P.E.C. 2020-J76                                  Issued 2020 May 15, 00:50 UT

     The Minor Planet Electronic Circulars contain information on unusual
         minor planets and routine data on comets.  They are published
    on behalf of Division F of the International Astronomical Union by the
          Minor Planet Center, Smithsonian Astrophysical Observatory,
                          Cambridge, MA 02138, U.S.A.

             Prepared using the Tamkin Foundation Computer Network

                              MPC at CFA.HARVARD.EDU
            URL https://www.minorplanetcenter.net/    ISSN 1523-6714

                                    2020 JM1                                    


Observations:
     K20J01M* C2020 05 13.36341114 21 21.138-05 43 28.27         21.05wUEJ076F52
     K20J01M  C2020 05 13.37520714 21 20.613-05 44 25.27         20.76wUEJ076F52
     K20J01M  C2020 05 13.38700014 21 20.061-05 45 21.89         21.00wUEJ076F52
     K20J01M  C2020 05 14.21402 14 21 34.71 -06 55 30.3          20.6 GVEJ076I52
     K20J01M  C2020 05 14.21570 14 21 34.62 -06 55 39.6          20.6 GVEJ076I52
     K20J01M  C2020 05 14.21739 14 21 34.58 -06 55 48.6          20.8 GVEJ076I52
     K20J01M  C2020 05 14.22545 14 21 34.25 -06 56 31.5          21.0 GVEJ076G96
     K20J01M  C2020 05 14.23057 14 21 34.07 -06 56 59.2          20.4 GVEJ076G96
     K20J01M  C2020 05 14.23568 14 21 33.88 -06 57 26.2          20.9 GVEJ076G96
     K20J01M  C2020 05 14.24079 14 21 33.67 -06 57 53.7          20.8 GVEJ076G96
     K20J01M  C2020 05 14.92918 14 21 44.51 -08 02 14.4          20.8 VVEJ076033
     K20J01M  C2020 05 14.93172 14 21 44.46 -08 02 28.6          20.4 VVEJ076033
     K20J01M  C2020 05 14.93426 14 21 44.41 -08 02 43.4          20.4 VVEJ076033

Observer details:
033 Karl Schwarzschild Observatory, Tautenburg.  Observers S. Melnikov, C. 
   Hoegner, B. Stecklum.  Measurer B. Stecklum.  1.34-m f/3 Schmidt + CCD.
F52 Pan-STARRS 2, Haleakala.  Observers J. Bulger, T. Dukes, T. Lowe, A. 
   Schultz, M. Willman.  Measurers K. Chambers, S. Chastel, T. de Boer, L. 
   Denneau, J. Fairlamb, H. Flewelling, M. Huber, C.-C. Lin, E. Magnier, Y. 
   Ramanjooloo, R. Wainscoat, R. Weryk.  1.8-m Ritchey-Chretien + CCD.
G96 Mt. Lemmon Survey.  Observer G. J. Leonard.  Measurers E. J. Christensen, 
   G. A. Farneth, D. C. Fuls, A. R. Gibbs, A. D. Grauer, H. Groeller, R. A. 
   Kowalski, S. M. Larson, G. J. Leonard, T. A. Pruyne, D. Rankin, R. L. Seaman,
    F. C. Shelly, K. W. Wierzchos.  1.5-m reflector + 10K CCD.
I52 Steward Observatory, Mt. Lemmon Station.  Observer D. Rankin.  Measurers E. 
   J. Christensen, G. A. Farneth, D. C. Fuls, A. R. Gibbs, A. D. Grauer, H. 
   Groeller, R. A. Kowalski, S. M. Larson, G. J. Leonard, T. A. Pruyne, D. 
   Rankin, R. L. Seaman, F. C. Shelly, K. W. Wierzchos.  1.0-m reflector + CCD.

Orbital elements:
2020 JM1                                                 Earth MOID = 0.0243 AU
Epoch 2020 May 31.0 TT = JDT 2459000.5                  Veres
M 348.66960              (2000.0)            P               Q
n   0.57313133     Peri.  215.15309     +0.02740871     +0.99672539
a   1.4353791      Node    56.53222     -0.89498548     +0.05836605
e   0.2967630      Incl.    5.23232     -0.44525245     -0.05596333
P   1.72           H   26.0           G   0.15           U   7
Residuals in seconds of arc
200513 F52  0.1-  0.1+    200514 I52  0.1+  0.0     200514 033  0.2-  0.3-
200513 F52  0.1+  0.1-    200514 G96  0.2-  0.1+    200514 033  0.0   0.2+
200513 F52  0.0   0.0     200514 G96  0.0   0.2-    200514 033  0.2+  0.1+
200514 I52  0.2+  0.3+    200514 G96  0.2+  0.1+
200514 I52  0.2-  0.1-    200514 G96  0.0   0.1-

Ephemeris:
2020 JM1                 a,e,i = 1.44, 0.30, 5                   q = 1.0094
Date    TT    R. A. (2000) Decl.     Delta      r    Elong.  Phase     V
2020 04 15    14 21 43.2 +05 30 14   0.1712  1.1661   160.6    16.6    23.4
...
2020 04 30    14 21 20.5 +03 34 28   0.1065  1.1089   161.5    16.7    22.3
...
2020 05 08    14 20 49.1 -00 21 28   0.07691 1.0821   160.6    18.0    21.5
...
2020 05 14    14 21 28.7 -06 35 07   0.05661 1.0642   160.6    18.4    20.8
2020 05 15    14 21 46.4 -08 06 41   0.05342 1.0615   160.7    18.4    20.7
2020 05 16    14 22 09.0 -09 50 14   0.05030 1.0587   160.8    18.3    20.6
...
2020 05 22    14 27 40.6 -26 43 06   0.03359 1.0438   158.9    20.5    19.7
...
2020 05 30    16 02 49.5 -77 48 30   0.02457 1.0276   123.9    55.0    20.0
...
2020 06 14    01 51 20.4 -43 33 01   0.05784 1.0108    83.5    93.2    23.1

M. P. C. Staff               (C) Copyright 2020 MPC           M.P.E.C. 2020-J76




More information about the Iaude mailing list